This is the latest recevied weather packets stored in our database for station/object WC4PEM-1. If no packets are shown the sender has not sent any weather packets the latest 10 day(s).
| Time | Temp. | Humidity | Pressure | Rain* | Wind** | Luminosity | Snow |
|---|---|---|---|---|---|---|---|
| 1777932434 | 26.11° C | 57% | 1013.3 hPa | 0 mm | - | 77 W/m² | - |
| 1777932206 | 26.11° C | 57% | 1013.3 hPa | 0 mm | - | 77 W/m² | - |
| 1777931906 | 26.11° C | 56% | 1013.2 hPa | 0 mm | - | 72 W/m² | - |
| 1777931606 | 26.11° C | 57% | 1013.2 hPa | 0 mm | - | 113 W/m² | - |
| 1777931306 | 26.11° C | 57% | 1013.4 hPa | 0 mm | - | 128 W/m² | - |
| 1777931006 | 26.11° C | 57% | 1013.2 hPa | 0 mm | - | 160 W/m² | - |
| 1777930706 | 26.67° C | 57% | 1013.2 hPa | 0 mm | - | 121 W/m² | - |
| 1777930406 | 26.11° C | 57% | 1013.2 hPa | 0 mm | - | 98 W/m² | - |
| 1777930106 | 26.67° C | 55% | 1013.2 hPa | 0 mm | - | 84 W/m² | - |
| 1777929806 | 26.67° C | 54% | 1013.2 hPa | 0 mm | - | 135 W/m² | - |
| 1777929506 | 27.22° C | 54% | 1013.1 hPa | 0 mm | - | 163 W/m² | - |
| 1777929206 | 27.22° C | 55% | 1013.1 hPa | 0 mm | - | 118 W/m² | - |
| 1777928906 | 26.67° C | 56% | 1013.2 hPa | 0 mm | - | 97 W/m² | - |
| 1777928606 | 27.22° C | 54% | 1013.2 hPa | 0 mm | - | 120 W/m² | - |
| 1777928306 | 27.22° C | 55% | 1013.3 hPa | 0 mm | - | 671 W/m² | - |
| 1777928181 | 26.67° C | 53% | 1013.3 hPa | 0 mm | - | 185 W/m² | - |
| 1777928006 | 27.22° C | 54% | 1013.3 hPa | 0 mm | - | 656 W/m² | - |
| 1777927706 | 26.67° C | 54% | 1013.4 hPa | 0 mm | - | 612 W/m² | - |
| 1777927406 | 26.67° C | 53% | 1013.3 hPa | 0 mm | - | 185 W/m² | - |
| 1777927294 | 27.22° C | 54% | 1013.3 hPa | 0 mm | - | 227 W/m² | - |
| 1777927106 | 27.22° C | 54% | 1013.3 hPa | 0 mm | - | 227 W/m² | - |
| 1777926806 | 27.22° C | 53% | 1013.4 hPa | 0 mm | - | 257 W/m² | - |
| 1777926506 | 27.78° C | 51% | 1013.4 hPa | 0 mm | - | 842 W/m² | - |
| 1777926206 | 27.78° C | 51% | 1013.4 hPa | 0 mm | - | 816 W/m² | - |
| 1777926026 | 27.22° C | 52% | 1013.4 hPa | 0 mm | - | 821 W/m² | - |
* Rain latest hour (hover to see other rain measurements)
** Current wind speed in m/s (hover to see current wind gust speed)